Pierre, SD

6:24 PM CDT on May 29, 2017 (GMT -0500)
Pierre Regional

Weather History for KPIR - June, 2014

Change the Weather History Date:

Thursday, June 26, 2014

  Actual Average Record
Temperature  
Mean Temperature 73 °F 71 °F  
Max Temperature 85 °F 84 °F 104 °F (1961)
Min Temperature 60 °F 59 °F 42 °F (2004)
Degree Days  
Heating Degree Days 0 1  
Month to date heating degree days 67 52  
Since 1 June heating degree days 67 52  
Since 1 July heating degree days 8027 7289  
Cooling Degree Days 8 7  
Month to date cooling degree days 44 103  
Year to date cooling degree days 92 135  
Since 1 June cooling degree days 44 103  
Growing Degree Days 22 (Base 50)    
Moisture  
Dew Point 63 °F    
Average Humidity 74    
Maximum Humidity 97    
Minimum Humidity 51    
Precipitation  
Precipitation 0.06 in 0.10 in 1.50 in (1943)
Month to date precipitation 2.90 3.18  
Year to date precipitation 10.83 10.38  
Sea Level Pressure  
Sea Level Pressure 29.74 in    
Wind  
Wind Speed 12 mph (SE)    
Max Wind Speed 21 mph    
Max Gust Speed 26 mph    
Visibility 9 miles    
Events Rain , Thunderstorm    
T = Trace of Precipitation, MM = Missing Value Source: NWS Daily Summary

Daily Weather History Graph

Daily Weather History Graph

Search for Another Location

Airport or City:

Trip Planner

Search our weather history database for the weather conditions in past years. The results will help you decide how hot, cold, wet, or windy it might be!

Date:

Astronomy

Jun. 26, 2014 Rise Set
Actual Time 5:58 AM CDT 9:29 PM CDT
Civil Twilight 5:21 AM CDT 10:06 PM CDT
Nautical Twilight 4:33 AM CDT 10:54 PM CDT
Astronomical Twilight 3:30 AM CDT 11:57 PM CDT
Moon 5:42 AM CDT (6/26) 8:48 PM CDT (6/26)
Length of Visible Light 16h 44m
Length of Day
15h 31m
Waning Crescent, 0% of the Moon is Illuminated
Jun 26
Waning Crescent
Jun 27
New
Jul 5
First Quarter
Jul 12
Full
Jul 18
Last Quarter

Hourly Weather History & Observations

Time (CDT) Temp. Heat Index Dew Point Humidity Pressure Visibility Wind Dir Wind Speed Gust Speed Precip Events Conditions
12:23 AM 70.0 °F - 62.1 °F 76% 29.92 in 9.0 mi SW 20.7 mph 27.6 mph 0.01 in Rain , Thunderstorm Light Rain
12:33 AM 66.9 °F - 62.1 °F 84% 29.92 in 2.5 mi West 19.6 mph 26.5 mph 0.11 in Rain , Thunderstorm Heavy Thunderstorms and Rain
12:53 AM 64.9 °F - 62.1 °F 90% 29.89 in 3.0 mi Calm Calm - 0.22 in Rain , Thunderstorm Light Thunderstorms and Rain
1:05 AM 64.0 °F - 63.0 °F 96% 29.91 in 7.0 mi NNE 5.8 mph - 0.02 in Rain , Thunderstorm Rain
1:23 AM 64.0 °F - 63.0 °F 96% 29.90 in 5.0 mi Calm Calm - 0.05 in Rain Rain
1:53 AM 64.0 °F - 62.1 °F 93% 29.81 in 10.0 mi East 9.2 mph - 0.07 in   Mostly Cloudy
2:34 AM 63.0 °F - 62.1 °F 97% 29.83 in 10.0 mi East 11.5 mph - 0.00 in Rain Light Rain
2:53 AM 63.0 °F - 61.0 °F 93% 29.77 in 10.0 mi ESE 9.2 mph - 0.00 in   Mostly Cloudy
3:53 AM 63.0 °F - 59.0 °F 87% 29.80 in 10.0 mi SE 6.9 mph - N/A   Clear
4:53 AM 61.0 °F - 59.0 °F 93% 29.78 in 10.0 mi ESE 8.1 mph - N/A   Partly Cloudy
5:53 AM 61.0 °F - 59.0 °F 93% 29.78 in 10.0 mi East 6.9 mph - N/A   Clear
6:53 AM 62.1 °F - 61.0 °F 96% 29.77 in 10.0 mi ENE 5.8 mph - N/A   Clear
7:53 AM 64.9 °F - 62.1 °F 90% 29.76 in 10.0 mi NE 4.6 mph - N/A   Clear
8:53 AM 68.0 °F - 63.0 °F 84% 29.78 in 10.0 mi SE 9.2 mph - N/A   Clear
9:53 AM 70.0 °F - 64.9 °F 84% 29.77 in 10.0 mi SE 9.2 mph - N/A   Clear
10:53 AM 73.0 °F - 64.0 °F 73% 29.75 in 10.0 mi SE 15.0 mph - N/A   Clear
11:53 AM 73.0 °F - 63.0 °F 71% 29.73 in 10.0 mi SE 16.1 mph - N/A   Partly Cloudy
12:53 PM 77.0 °F - 64.9 °F 66% 29.72 in 10.0 mi SE 17.3 mph 23.0 mph N/A   Scattered Clouds
1:53 PM 79.0 °F - 66.9 °F 66% 29.70 in 10.0 mi SE 16.1 mph - N/A   Clear
2:53 PM 81.0 °F 82.7 °F 64.9 °F 58% 29.68 in 10.0 mi SE 15.0 mph - N/A   Clear
3:53 PM 84.0 °F 86.5 °F 66.9 °F 56% 29.65 in 10.0 mi SSE 17.3 mph - N/A   Clear
4:53 PM 84.0 °F 87.0 °F 68.0 °F 58% 29.63 in 10.0 mi SE 13.8 mph - N/A   Clear
5:53 PM 84.0 °F 86.5 °F 66.9 °F 56% 29.61 in 10.0 mi ESE 12.7 mph 20.7 mph N/A   Clear
6:53 PM 84.0 °F 85.8 °F 64.9 °F 53% 29.60 in 10.0 mi SE 12.7 mph 21.9 mph N/A   Clear
7:53 PM 82.0 °F 84.1 °F 66.0 °F 58% 29.57 in 10.0 mi SE 11.5 mph - N/A   Clear
8:53 PM 77.0 °F - 64.9 °F 66% 29.60 in 10.0 mi SE 10.4 mph - N/A   Clear
9:53 PM 75.0 °F - 64.0 °F 69% 29.61 in 10.0 mi SE 10.4 mph - N/A   Clear
10:53 PM 73.9 °F - 64.0 °F 71% 29.62 in 10.0 mi SE 15.0 mph - N/A   Clear
11:53 PM 73.0 °F - 64.0 °F 73% 29.64 in 10.0 mi SE 11.5 mph - N/A   Clear